Weather History for Hayward, CA

Change the Weather History Date:

Wednesday, October 2, 2013

  Actual Average Record
Temperature  
Mean Temperature 60 °F 65 °F  
Max Temperature 69 °F 74 °F 97 °F (2012)
Min Temperature 51 °F 56 °F 51 °F (2013)
Degree Days  
Heating Degree Days 5    
Month to date heating degree days 9  
Since 1 July heating degree days 116  
Cooling Degree Days 0    
Month to date cooling degree days 0  
Year to date cooling degree days 243  
Growing Degree Days 10 (Base 50)    
Moisture  
Dew Point 50 °F    
Average Humidity 69    
Maximum Humidity 89    
Minimum Humidity 49    
Precipitation  
Precipitation 0.00 in - 0.00 in (2014)
Month to date precipitation 0.00  
Year to date precipitation 1.71  
Since 1 July precipitation 0.22  
Sea Level Pressure  
Sea Level Pressure 30.00 in    
Wind  
Wind Speed 6 mph (WSW)    
Max Wind Speed 18 mph    
Max Gust Speed 23 mph    
Visibility 10 miles    
Events      
T = Trace of Precipitation, MM = Missing Value Source: NWS Daily Summary

Daily Weather History Graph

Daily Weather History Graph

Search for Another Location

Airport:

Trip Planner

Search our weather history database for the weather conditions in past years. The results will help you decide how hot, cold, wet, or windy it might be!

Date:

Astronomy

Oct. 02, 2013 Rise Set
Actual Time 7:05 AM PDT 6:49 PM PDT
Civil Twilight 6:39 AM PDT 7:15 PM PDT
Nautical Twilight 6:08 AM PDT 7:45 PM PDT
Astronomical Twilight 5:38 AM PDT 8:16 PM PDT
Moon 4:45 AM PDT (10/2) 5:26 PM PDT (10/2)
Length of Visible Light 12h 36m
Length of Day
11h 44m
Waning Crescent, 6% of the Moon is Illuminated
Oct 2
Waning Crescent
Oct 4
New
Oct 11
First Quarter
Oct 18
Full
Oct 26
Last Quarter

Hourly Weather History & Observations

Time (PDT) Temp. Dew Point Humidity Pressure Visibility Wind Dir Wind Speed Gust Speed Precip Events Conditions
12:54 AM 54.0 °F 50.0 °F 86% 29.97 in 10.0 mi Calm Calm - N/A   Clear
1:54 AM 53.1 °F 48.9 °F 86% 29.97 in 10.0 mi ENE 4.6 mph - N/A   Clear
2:54 AM 53.1 °F 48.9 °F 86% 29.96 in 10.0 mi ENE 5.8 mph - N/A   Clear
3:54 AM 53.1 °F 48.9 °F 86% 29.97 in 10.0 mi ENE 4.6 mph - N/A   Clear
4:54 AM 52.0 °F 48.0 °F 86% 29.97 in 10.0 mi ENE 3.5 mph - N/A   Clear
5:54 AM 52.0 °F 48.0 °F 86% 29.99 in 10.0 mi Calm Calm - N/A   Clear
6:54 AM 51.1 °F 48.0 °F 89% 29.99 in 10.0 mi Calm Calm - N/A   Clear
7:54 AM 54.0 °F 50.0 °F 86% 30.01 in 10.0 mi Calm Calm - N/A   Clear
8:54 AM 55.9 °F 51.1 °F 84% 30.03 in 10.0 mi Calm Calm - N/A   Clear
9:54 AM 60.1 °F 54.0 °F 80% 30.04 in 10.0 mi Calm Calm - N/A   Clear
10:54 AM 62.1 °F 54.0 °F 75% 30.04 in 10.0 mi WSW 5.8 mph - N/A   Clear
11:54 AM 64.9 °F 53.1 °F 65% 30.04 in 10.0 mi WNW 5.8 mph - N/A   Clear
12:54 PM 68.0 °F 48.9 °F 50% 30.01 in 10.0 mi WNW 6.9 mph - N/A   Clear
1:54 PM 68.0 °F 54.0 °F 61% 30.00 in 10.0 mi WNW 11.5 mph - N/A   Clear
2:54 PM 66.0 °F 51.1 °F 59% 30.00 in 10.0 mi West 13.8 mph - N/A   Clear
3:54 PM 66.0 °F 51.1 °F 59% 30.00 in 10.0 mi West 13.8 mph - N/A   Clear
4:54 PM 63.0 °F 50.0 °F 63% 30.00 in 10.0 mi WSW 11.5 mph - N/A   Clear
5:54 PM 62.1 °F 48.9 °F 62% 30.00 in 10.0 mi West 10.4 mph - N/A   Clear
6:54 PM 59.0 °F 50.0 °F 72% 30.00 in 10.0 mi North - - N/A   Clear
7:54 PM 57.9 °F 50.0 °F 75% 30.01 in 10.0 mi WSW 6.9 mph - N/A   Clear
8:54 PM 57.9 °F 50.0 °F 75% 30.01 in 10.0 mi South 5.8 mph - N/A   Clear
9:54 PM 54.0 °F 48.9 °F 83% 30.03 in 10.0 mi ESE 6.9 mph - N/A   Clear
10:54 PM 53.1 °F 48.9 °F 86% 30.04 in 10.0 mi SE 4.6 mph - N/A   Clear
11:54 PM 54.0 °F 48.9 °F 83% 30.04 in 10.0 mi SSE 9.2 mph - N/A   Clear